Regional Weather Roundup
Issued by NWS

Home | Current Version | Previous Version | Text Only | Print | Product List | Glossary Off
Versions: 1 2 3 4 5 6 7 8 9 10 11 12 13 14 15 16 17 18 19 20 21 22 23 24 25 26 27 28 29 30 31 32 33 34 35 36 37 38 39 40 41 42 43 44 45 46 47 48 49 50

000
ASUS43 KLOT 151703
RWRIL

ILLINOIS REGIONAL WEATHER ROUNDUP
NATIONAL WEATHER SERVICE CHICAGO/ROMEOVILLE IL
1100 AM CST FRI DEC 15 2017

NOTE: "FAIR" INDICATES FEW OR NO CLOUDS BELOW 12,000 FEET WITH NO
SIGNIFICANT WEATHER AND/OR OBSTRUCTIONS TO VISIBILITY.

* THESE STATIONS ARE NOT UNDER NWS QUALITY CONTROL. THEY ALSO MAY NOT
  REPORT WEATHER SUCH AS PRECIPITATION OR FOG.

ILZ001-002-007-009-015-016-024-151800-
NORTHWEST ILLINOIS

CITY           SKY/WX    TMP DP  RH WIND       PRES   REMARKS
MOLINE         CLOUDY    33  21  61 SW12      30.00F WCI  24
STERLING*      PTSUNNY   33  21  61 W15       29.97F WCI  23
SAVANNA*       CLOUDY    32  22  66 W14G21    29.96F WCI  22
$$

ILZ003-004-008-010-011-017-018-151800-
NORTH CENTRAL ILLINOIS

CITY           SKY/WX    TMP DP  RH WIND       PRES   REMARKS
ROCKFORD       CLOUDY    29  17  61 W16G22    29.96S WCI  17
FREEPORT*      CLOUDY    28  20  72 W9        29.96F WCI  19
ROCHELLE*      PTSUNNY   29  19  66 W17       29.97R WCI  17
DE KALB*       MOSUNNY   30  19  62 W18G24    29.95S WCI  18
$$

ILZ005-006-012>014-019>023-151800-
NORTHEAST ILLINOIS

CITY           SKY/WX    TMP DP  RH WIND       PRES   REMARKS
CHICAGO-OHARE  PTSUNNY   29  13  51 NW20G31   29.92S WCI  16
CHICAGO-MIDWAY PTSUNNY   30  14  51 NW17G30   29.94S WCI  18
AURORA         PTSUNNY   29  17  61 W16       29.94F WCI  17
LANSING*       CLOUDY    30  17  59 W17G29    29.95S WCI  18
JOLIET*        CLOUDY    32  18  55 W9G21     29.97S WCI  24
WAUKEGAN       PTSUNNY   28  13  53 NW13G25   29.89F WCI  17
DUPAGE AIRPORT PTSUNNY   30  17  58 W16G24    29.92F WCI  19
WHEELING       PTSUNNY   30  14  51 NW14G23   29.93F WCI  19
NORTHERLY ISL    N/A     29  14  53 W18         N/A  WCI  17
$$

LMZ740>746-151800-
SOUTHERN LAKE MICHIGAN

STATION/POSITION SKY/WX   TEMP    WIND        PRES    VSBY  WAVE
                          AIR SEA DIR/SP/G                  HT/PER
                          (F)     (DEG/KT/KT) (MB)    (MI)  (FT/S)
HARRISON CRIB              29     290/ 23/ 26   N/A
BURNHAM HARBOR             29     310/  7/ 18   N/A
CALUMET HARBOR             28     240/ 10/ 17 1013.3R
BURNS HARBOR               28     280/ 17/ 22 1013.9R
MICHIGAN CITY              27     280/ 27/ 31   N/A
$$

ILZ025>027-034>036-040-047-049-050-058-095>099-151800-
WEST-CENTRAL ILLINOIS

CITY           SKY/WX    TMP DP  RH WIND       PRES   REMARKS
QUINCY         CLOUDY    36  20  52 W13       30.07S WCI  27
GALESBURG*     PTSUNNY   34  22  63 SW10      30.03F WCI  26
MACOMB*        MOSUNNY   36  23  59 W12       30.07F WCI  27
PITTSFIELD*    SUNNY     37  21  52 W12       30.09S WCI  30
$$

ILZ028>032-037-038-041>044-048-051>054-059>061-151800-
CENTRAL ILLINOIS

CITY           SKY/WX    TMP DP  RH WIND       PRES   REMARKS
BLOOMINGTON    PTSUNNY   32  17  54 W16       30.03F WCI  21
DECATUR        MOSUNNY   33  20  58 NW17G23   30.06S WCI  22
PEORIA         MOSUNNY   34  18  52 NW12G17   30.04F WCI  25
LACON*         CLOUDY    32  18  56 W12G18    30.01F WCI  23
LINCOLN*       CLOUDY    34  21  60 W12G18    30.06F WCI  25
SPRINGFIELD    MOSUNNY   36  21  54 W14       30.08S WCI  27
TAYLORVILLE    NOT AVBL
$$

ILZ033-039-045-046-055>057-062-063-151800-
EAST-CENTRAL ILLINOIS

CITY           SKY/WX    TMP DP  RH WIND       PRES   REMARKS
CHAMPAIGN      PTSUNNY   33  21  61 W21       30.04S WCI  21
DANVILLE*      CLOUDY    32  19  60 W20G25    29.99F WCI  20
MATTOON        CLOUDY    31  24  75 W15       30.06S WCI  20
$$

ILZ079-100>102-151800-
SOUTHWEST ILLINOIS

CITY           SKY/WX    TMP DP  RH WIND       PRES   REMARKS
ALTON          PTSUNNY   37  27  65 W12       30.11S WCI  30
BELLEVILLE     CLOUDY    39  24  55 W10       30.11S WCI  32
SPARTA*        PTSUNNY   37  27  66 SW7       30.13F WCI  31
$$

ILZ064>066-069>071-074>076-080>082-084>086-088>090-092>094-151800-
SOUTH-CENTRAL ILLINOIS

CITY           SKY/WX    TMP DP  RH WIND       PRES   REMARKS
CARBONDALE     PTSUNNY   39  25  57 SW10      30.14F WCI  32
CAIRO*         PTSUNNY   39  24  55 SW8       30.18F WCI  33
EFFINGHAM*     CLOUDY    35  26  70 W10       30.10F WCI  27
MARION         PTSUNNY   39  23  52 SW8       30.16F WCI  34
MT. VERNON     CLOUDY    38  25  59 SW12      30.12F WCI  30
CENTRALIA*     CLOUDY    37  26  66 W10       30.10F WCI  29
SALEM*         CLOUDY    37  25  60 W12       30.10F WCI  30
METROPOLIS*    SUNNY     38  24  55 SW10      30.18F WCI  31
$$

ILZ067-068-072-073-078-083-087-091-151800-
SOUTHEAST ILLINOIS

CITY           SKY/WX    TMP DP  RH WIND       PRES   REMARKS
LAWRENCEVILLE  CLOUDY    35  22  58 SW15      30.10F WCI  25
FLORA*         CLOUDY    37  25  61 W12       30.11S WCI  30
HARRISBURG*    PTSUNNY   39  25  56 W14       30.15F WCI  31
ROBINSON*      CLOUDY    32  22  67 SW13      30.10S WCI  23
CARMI*         CLOUDY    36  24  60 W10       30.13F WCI  29
$$

ABBREVIATIONS USED IN REMARKS
   TC - TEMPERATURE IN CELSIUS
  WCI - WIND CHILL INDEX
   HX - HEAT INDEX
  VSB - VISIBILITY
$$





USA.gov is the U.S. government's official web portal to all federal, state and local government web resources and services.